| time (UTC) | temp C | wind direction | speed KPH | gust KPH | rain 1hr cm | rain 24hr cm | rain mn cm | humidity % | barometer mb |
| 20260504001936 | 22 | 54 | 1.6 | 6.4 | 0.00 | 0.00 | 0.00 | 56 | 1009.8 |
| 20260504001433 | 23 | 32 | 3.2 | 4.8 | 0.00 | 0.00 | 0.00 | 54 | 1010.0 |
| 20260504000930 | 22 | 23 | 1.6 | 9.7 | 0.00 | 0.00 | 0.00 | 57 | 1010.2 |
| 20260504000427 | 22 | 63 | 0.0 | 4.8 | 0.00 | 0.00 | 0.00 | 57 | 1010.1 |
| 20260503235924 | 22 | 14 | 3.2 | 4.8 | 0.00 | 0.00 | 0.00 | 57 | 1010.1 |
| 20260503235422 | 20 | 29 | 0.0 | 16.1 | 0.00 | 0.00 | 0.00 | 62 | 1010.1 |
| 20260503234919 | 22 | 311 | 3.2 | 6.4 | 0.00 | 0.00 | 0.00 | 56 | 1010.3 |
| 20260503234417 | 22 | 75 | 1.6 | 4.8 | 0.00 | 0.00 | 0.00 | 58 | 1010.2 |
| 20260503233915 | 22 | 45 | 4.8 | 8.0 | 0.00 | 0.00 | 0.00 | 56 | 1010.4 |
| 20260503233411 | 22 | 0 | 4.8 | 8.0 | 0.00 | 0.00 | 0.00 | 56 | 1010.5 |
| 20260503232907 | 23 | 84 | 3.2 | 6.4 | 0.00 | 0.00 | 0.00 | 53 | 1010.6 |
| 20260503232405 | 25 | 41 | 3.2 | 14.5 | 0.00 | 0.00 | 0.00 | 47 | 1010.4 |
| 20260503231902 | 25 | 48 | 3.2 | 16.1 | 0.00 | 0.00 | 0.00 | 48 | 1010.5 |
| 20260503231359 | 25 | 15 | 11.3 | 11.3 | 0.00 | 0.00 | 0.00 | 48 | 1010.6 |
| 20260503230855 | 24 | 39 | 8.0 | 16.1 | 0.00 | 0.00 | 0.00 | 48 | 1010.8 |
| 20260503230352 | 25 | 16 | 8.0 | 17.7 | 0.00 | 0.00 | 0.00 | 49 | 1010.7 |
| 20260503225850 | 25 | 30 | 3.2 | 17.7 | 0.00 | 0.00 | 0.00 | 48 | 1010.9 |
| 20260503225345 | 25 | 48 | 3.2 | 8.0 | 0.00 | 0.00 | 0.00 | 49 | 1010.8 |
| 20260503224842 | 25 | 45 | 4.8 | 12.9 | 0.00 | 0.00 | 0.00 | 45 | 1011.0 |
| 20260503224339 | 24 | 0 | 17.7 | 19.3 | 0.00 | 0.00 | 0.00 | 45 | 1011.1 |
| 20260503223837 | 24 | 16 | 6.4 | 19.3 | 0.00 | 0.00 | 0.00 | 45 | 1011.2 |
| 20260503223334 | 23 | 67 | 8.0 | 19.3 | 0.00 | 0.00 | 0.00 | 50 | 1011.2 |
| 20260503222830 | 22 | 52 | 3.2 | 16.1 | 0.00 | 0.00 | 0.00 | 54 | 1011.3 |
| 20260503222329 | 21 | 28 | 12.9 | 12.9 | 0.00 | 0.00 | 0.00 | 58 | 1011.3 |
| 20260503221826 | 21 | 16 | 4.8 | 16.1 | 0.00 | 0.00 | 0.00 | 58 | 1011.4 |
| 20260503221325 | 21 | 79 | 3.2 | 11.3 | 0.00 | 0.00 | 0.00 | 59 | 1011.5 |
| 20260503220821 | 21 | 4 | 3.2 | 14.5 | 0.00 | 0.00 | 0.00 | 60 | 1011.6 |
| 20260503220318 | 21 | 45 | 4.8 | 22.5 | 0.00 | 0.00 | 0.00 | 60 | 1011.6 |
| 20260503215814 | 20 | 45 | 0.0 | 16.1 | 0.00 | 0.00 | 0.00 | 62 | 1011.5 |
| 20260503215312 | 21 | 70 | 3.2 | 24.1 | 0.00 | 0.00 | 0.00 | 60 | 1011.6 |
| 20260503214810 | 21 | 322 | 4.8 | 11.3 | 0.00 | 0.00 | 0.00 | 56 | 1011.6 |
| 20260503214306 | 21 | 348 | 8.0 | 19.3 | 0.00 | 0.00 | 0.00 | 55 | 1011.7 |
| 20260503213804 | 21 | 39 | 6.4 | 14.5 | 0.00 | 0.00 | 0.00 | 56 | 1011.9 |
| 20260503213301 | 20 | 83 | 0.0 | 14.5 | 0.00 | 0.00 | 0.00 | 58 | 1011.8 |
| 20260503212758 | 20 | 0 | 9.7 | 16.1 | 0.00 | 0.00 | 0.00 | 59 | 1011.8 |
| 20260503212255 | 21 | 20 | 9.7 | 16.1 | 0.00 | 0.00 | 0.00 | 54 | 1011.9 |
| 20260503211753 | 21 | 55 | 4.8 | 16.1 | 0.00 | 0.00 | 0.00 | 55 | 1011.9 |
| 20260503211249 | 20 | 30 | 9.7 | 9.7 | 0.00 | 0.00 | 0.00 | 60 | 1011.8 |
| 20260503210744 | 21 | 22 | 11.3 | 17.7 | 0.00 | 0.00 | 0.00 | 54 | 1012.0 |
| 20260503210242 | 22 | 12 | 3.2 | 12.9 | 0.00 | 0.00 | 0.00 | 54 | 1012.1 |
| 20260503205742 | 20 | 346 | 8.0 | 14.5 | 0.00 | 0.00 | 0.00 | 58 | 1012.3 |
| 20260503205239 | 21 | 42 | 4.8 | 14.5 | 0.00 | 0.00 | 0.00 | 56 | 1012.2 |
| 20260503204735 | 21 | 30 | 9.7 | 20.9 | 0.00 | 0.00 | 0.00 | 54 | 1012.3 |
| 20260503204233 | 21 | 29 | 9.7 | 22.5 | 0.00 | 0.00 | 0.00 | 56 | 1012.2 |
| 20260503203731 | 21 | 13 | 17.7 | 19.3 | 0.00 | 0.00 | 0.00 | 58 | 1012.3 |
| 20260503203228 | 20 | 13 | 14.5 | 16.1 | 0.00 | 0.00 | 0.00 | 61 | 1012.4 |
| 20260503202725 | 20 | 350 | 8.0 | 19.3 | 0.00 | 0.00 | 0.00 | 63 | 1012.5 |
| 20260503202223 | 20 | 90 | 4.8 | 14.5 | 0.00 | 0.00 | 0.00 | 63 | 1012.7 |
| 20260503201720 | 20 | 23 | 3.2 | 11.3 | 0.00 | 0.00 | 0.00 | 63 | 1012.5 |
| 20260503201218 | 20 | 18 | 4.8 | 14.5 | 0.00 | 0.00 | 0.00 | 62 | 1012.8 |
| 20260503200714 | 20 | 46 | 6.4 | 9.7 | 0.00 | 0.00 | 0.00 | 62 | 1012.8 |
| 20260503200211 | 20 | 357 | 8.0 | 8.0 | 0.00 | 0.00 | 0.00 | 65 | 1012.9 |
| 20260503195707 | 19 | 43 | 6.4 | 19.3 | 0.00 | 0.00 | 0.00 | 65 | 1012.9 |
| 20260503195204 | 20 | 42 | 4.8 | 14.5 | 0.00 | 0.00 | 0.00 | 66 | 1012.9 |
| 20260503194701 | 18 | 14 | 8.0 | 14.5 | 0.00 | 0.00 | 0.00 | 69 | 1013.0 |
| 20260503194156 | 18 | 37 | 4.8 | 11.3 | 0.00 | 0.00 | 0.00 | 71 | 1013.2 |
| 20260503193654 | 18 | 68 | 0.0 | 6.4 | 0.00 | 0.00 | 0.00 | 73 | 1013.0 |
| 20260503193149 | 18 | 66 | 1.6 | 8.0 | 0.00 | 0.00 | 0.00 | 73 | 1013.3 |
| 20260503192645 | 17 | 23 | 3.2 | 12.9 | 0.00 | 0.00 | 0.00 | 75 | 1013.3 |
| 20260503192141 | 16 | 63 | 14.5 | 17.7 | 0.00 | 0.00 | 0.00 | 74 | 1013.3 |
| 20260503191638 | 17 | 42 | 3.2 | 9.7 | 0.00 | 0.00 | 0.00 | 74 | 1013.2 |
| 20260503191135 | 17 | 12 | 4.8 | 9.7 | 0.00 | 0.00 | 0.00 | 74 | 1013.2 |
| 20260503190632 | 17 | 9 | 3.2 | 11.3 | 0.00 | 0.00 | 0.00 | 75 | 1013.5 |
| 20260503190128 | 17 | 317 | 0.0 | 11.3 | 0.00 | 0.00 | 0.00 | 75 | 1013.6 |
| 20260503185625 | 16 | 19 | 6.4 | 17.7 | 0.00 | 0.00 | 0.00 | 76 | 1013.5 |
| 20260503185120 | 16 | 14 | 6.4 | 16.1 | 0.00 | 0.00 | 0.00 | 76 | 1013.6 |
| 20260503184616 | 16 | 36 | 11.3 | 17.7 | 0.00 | 0.00 | 0.00 | 75 | 1013.8 |
| 20260503184113 | 17 | 20 | 4.8 | 19.3 | 0.00 | 0.00 | 0.00 | 74 | 1013.7 |
| 20260503183609 | 17 | 57 | 4.8 | 9.7 | 0.00 | 0.00 | 0.00 | 74 | 1013.8 |
| 20260503183106 | 17 | 26 | 4.8 | 11.3 | 0.00 | 0.00 | 0.00 | 71 | 1013.8 |
| 20260503182605 | 18 | 40 | 4.8 | 12.9 | 0.00 | 0.00 | 0.00 | 65 | 1013.7 |
| 20260503182103 | 20 | 356 | 3.2 | 22.5 | 0.00 | 0.00 | 0.00 | 59 | 1013.7 |
| 20260503181559 | 20 | 8 | 17.7 | 22.5 | 0.00 | 0.00 | 0.00 | 60 | 1013.8 |
| 20260503181055 | 20 | 23 | 16.1 | 17.7 | 0.00 | 0.00 | 0.00 | 61 | 1013.8 |
| 20260503180553 | 20 | 9 | 11.3 | 20.9 | 0.00 | 0.00 | 0.00 | 62 | 1013.9 |
| 20260503180050 | 19 | 27 | 9.7 | 20.9 | 0.00 | 0.00 | 0.00 | 65 | 1013.9 |
| 20260503175547 | 18 | 67 | 4.8 | 19.3 | 0.00 | 0.00 | 0.00 | 70 | 1014.0 |
| 20260503175045 | 17 | 16 | 9.7 | 16.1 | 0.00 | 0.00 | 0.00 | 72 | 1013.9 |
| 20260503174542 | 17 | 70 | 3.2 | 9.7 | 0.00 | 0.00 | 0.00 | 76 | 1014.0 |
| 20260503174038 | 16 | 54 | 1.6 | 12.9 | 0.00 | 0.00 | 0.00 | 77 | 1014.1 |
| 20260503173533 | 16 | 60 | 3.2 | 9.7 | 0.00 | 0.00 | 0.00 | 78 | 1014.1 |
| 20260503173029 | 16 | 2 | 14.5 | 14.5 | 0.00 | 0.00 | 0.00 | 77 | 1014.0 |
| 20260503172527 | 16 | 34 | 6.4 | 9.7 | 0.00 | 0.00 | 0.00 | 77 | 1014.2 |
| 20260503172024 | 16 | 319 | 3.2 | 12.9 | 0.00 | 0.00 | 0.00 | 77 | 1014.0 |
| 20260503171521 | 16 | 20 | 8.0 | 14.5 | 0.00 | 0.00 | 0.00 | 76 | 1014.0 |
| 20260503171018 | 16 | 22 | 6.4 | 22.5 | 0.00 | 0.00 | 0.00 | 77 | 1014.1 |
| 20260503170514 | 16 | 50 | 6.4 | 14.5 | 0.00 | 0.00 | 0.00 | 76 | 1014.1 |
| 20260503150906 | 13 | 49 | 4.8 | 6.4 | 0.00 | 0.00 | 0.00 | 84 | 1014.4 |
| 20260503150403 | 13 | 13 | 6.4 | 6.4 | 0.00 | 0.00 | 0.00 | 84 | 1014.3 |
| 20260503131256 | 13 | 90 | 1.6 | 3.2 | 0.00 | 0.00 | 0.00 | 83 | 1014.2 |
| 20260503130754 | 13 | 105 | 0.0 | 1.6 | 0.00 | 0.00 | 0.00 | 83 | 1014.0 |
| 20260503130251 | 12 | 71 | 1.6 | 3.2 | 0.00 | 0.00 | 0.00 | 83 | 1014.1 |
| 20260503120217 | 12 | 75 | 3.2 | 3.2 | 0.00 | 0.00 | 0.00 | 82 | 1014.0 |
| 20260503110644 | 12 | 90 | 0.0 | 1.6 | 0.00 | 0.00 | 0.00 | 82 | 1014.3 |
| 20260503110142 | 12 | 83 | 1.6 | 1.6 | 0.00 | 0.00 | 0.00 | 82 | 1014.3 |
| 20260503100109 | 12 | 19 | 3.2 | 3.2 | 0.00 | 0.00 | 0.00 | 84 | 1014.2 |
| 20260503081458 | 13 | 41 | 3.2 | 4.8 | 0.00 | 0.00 | 0.00 | 82 | 1014.4 |
| 20260503080955 | 12 | 35 | 0.0 | 3.2 | 0.00 | 0.00 | 0.00 | 82 | 1014.5 |
| 20260503080451 | 12 | 63 | 3.2 | 3.2 | 0.00 | 0.00 | 0.00 | 82 | 1014.3 |
| 20260503072928 | 12 | 74 | 0.0 | 1.6 | 0.00 | 0.00 | 0.00 | 81 | 1014.2 |
| 20260503072425 | 12 | 66 | 0.0 | 0.0 | 0.00 | 0.00 | 0.00 | 81 | 1014.4 |
| 20260503071922 | 12 | 69 | 0.0 | 1.6 | 0.00 | 0.00 | 0.00 | 81 | 1014.4 |
| 20260503071419 | 12 | 63 | 0.0 | 0.0 | 0.00 | 0.00 | 0.00 | 81 | 1014.4 |
| 20260503070915 | 12 | 74 | 0.0 | 0.0 | 0.00 | 0.00 | 0.00 | 80 | 1014.4 |
| 20260503070412 | 13 | 66 | 0.0 | 3.2 | 0.00 | 0.00 | 0.00 | 80 | 1014.4 |
| 20260503060338 | 15 | 23 | 0.0 | 3.2 | 0.00 | 0.03 | 0.03 | 68 | 1014.2 |
| 20260503054826 | 17 | 84 | 1.6 | 3.2 | 0.00 | 0.03 | 0.03 | 59 | 1014.0 |
| 20260503054322 | 17 | 60 | 0.0 | 3.2 | 0.00 | 0.03 | 0.03 | 60 | 1014.1 |
| 20260503053819 | 17 | 35 | 0.0 | 0.0 | 0.00 | 0.03 | 0.03 | 59 | 1014.0 |
| 20260503053318 | 17 | 90 | 0.0 | 3.2 | 0.00 | 0.03 | 0.03 | 58 | 1014.1 |
| 20260503052814 | 17 | 74 | 0.0 | 3.2 | 0.00 | 0.03 | 0.03 | 59 | 1014.1 |
| 20260503052311 | 17 | 60 | 0.0 | 3.2 | 0.00 | 0.03 | 0.03 | 59 | 1014.1 |
| 20260503051807 | 17 | 180 | 0.0 | 1.6 | 0.00 | 0.03 | 0.03 | 59 | 1014.2 |
| 20260503051303 | 17 | 194 | 0.0 | 3.2 | 0.00 | 0.03 | 0.03 | 58 | 1013.9 |
| 20260503050800 | 17 | 66 | 0.0 | 3.2 | 0.00 | 0.03 | 0.03 | 58 | 1014.0 |
| 20260503050256 | 18 | 74 | 0.0 | 0.0 | 0.00 | 0.03 | 0.03 | 57 | 1014.0 |
| 20260503045754 | 18 | 66 | 0.0 | 3.2 | 0.00 | 0.03 | 0.03 | 57 | 1014.1 |
| 20260503045252 | 18 | 74 | 0.0 | 3.2 | 0.00 | 0.03 | 0.03 | 57 | 1014.1 |
| 20260503044748 | 18 | 54 | 0.0 | 3.2 | 0.00 | 0.03 | 0.03 | 57 | 1014.0 |
| 20260503044245 | 18 | 174 | 1.6 | 1.6 | 0.00 | 0.03 | 0.03 | 56 | 1014.1 |
| 20260503043742 | 18 | 7 | 0.0 | 3.2 | 0.00 | 0.03 | 0.03 | 56 | 1014.0 |
| 20260503043239 | 18 | 279 | 0.0 | 3.2 | 0.00 | 0.03 | 0.03 | 56 | 1013.8 |
| 20260503042735 | 18 | 0 | 0.0 | 4.8 | 0.00 | 0.03 | 0.03 | 55 | 1013.8 |
| 20260503042232 | 18 | 0 | 0.0 | 3.2 | 0.00 | 0.03 | 0.03 | 57 | 1013.8 |
| 20260503041728 | 18 | 60 | 0.0 | 3.2 | 0.00 | 0.03 | 0.03 | 56 | 1013.7 |
| 20260503041226 | 19 | 81 | 0.0 | 4.8 | 0.00 | 0.03 | 0.03 | 54 | 1013.6 |
| 20260503040724 | 19 | 258 | 3.2 | 3.2 | 0.00 | 0.03 | 0.03 | 55 | 1013.6 |
| 20260503040221 | 19 | 84 | 1.6 | 3.2 | 0.00 | 0.03 | 0.03 | 54 | 1013.6 |
| 20260503035717 | 20 | 66 | 0.0 | 3.2 | 0.00 | 0.03 | 0.03 | 52 | 1013.6 |
| 20260503035215 | 19 | 20 | 0.0 | 3.2 | 0.00 | 0.03 | 0.03 | 54 | 1013.4 |
| 20260503034712 | 19 | 26 | 4.8 | 4.8 | 0.00 | 0.03 | 0.03 | 55 | 1013.4 |
| 20260503034209 | 19 | 16 | 0.0 | 6.4 | 0.00 | 0.03 | 0.03 | 55 | 1013.3 |
| 20260503033706 | 19 | 18 | 0.0 | 3.2 | 0.00 | 0.03 | 0.03 | 55 | 1013.2 |
| 20260503033204 | 19 | 81 | 0.0 | 1.6 | 0.00 | 0.03 | 0.03 | 55 | 1013.3 |
| 20260503032702 | 20 | 35 | 1.6 | 1.6 | 0.00 | 0.03 | 0.03 | 55 | 1013.1 |
| 20260503032200 | 20 | 21 | 0.0 | 4.8 | 0.00 | 0.03 | 0.03 | 53 | 1013.3 |
| 20260503031657 | 20 | 53 | 3.2 | 6.4 | 0.00 | 0.03 | 0.03 | 52 | 1013.0 |
| 20260503031155 | 21 | 54 | 1.6 | 6.4 | 0.00 | 0.03 | 0.03 | 52 | 1013.0 |
| 20260503030651 | 21 | 29 | 0.0 | 6.4 | 0.00 | 0.03 | 0.03 | 52 | 1012.8 |
| 20260503030147 | 21 | 60 | 0.0 | 4.8 | 0.00 | 0.03 | 0.03 | 52 | 1012.9 |
| 20260503025644 | 21 | 15 | 0.0 | 6.4 | 0.00 | 0.03 | 0.03 | 51 | 1012.9 |
| 20260503025143 | 21 | 346 | 3.2 | 4.8 | 0.00 | 0.03 | 0.03 | 51 | 1012.8 |
| 20260503024638 | 22 | 352 | 8.0 | 8.0 | 0.00 | 0.03 | 0.03 | 52 | 1012.7 |
| 20260503024136 | 22 | 103 | 3.2 | 6.4 | 0.00 | 0.03 | 0.03 | 50 | 1012.7 |
| 20260503023633 | 22 | 11 | 6.4 | 11.3 | 0.00 | 0.03 | 0.03 | 50 | 1012.9 |
| 20260503023130 | 22 | 78 | 0.0 | 11.3 | 0.00 | 0.03 | 0.03 | 50 | 1013.0 |
| 20260503022626 | 22 | 38 | 3.2 | 11.3 | 0.00 | 0.03 | 0.03 | 50 | 1012.8 |
| 20260503022120 | 23 | 12 | 1.6 | 4.8 | 0.00 | 0.03 | 0.03 | 49 | 1013.0 |
| 20260503021618 | 22 | 45 | 6.4 | 17.7 | 0.00 | 0.03 | 0.03 | 51 | 1012.9 |
| 20260503021114 | 23 | 341 | 3.2 | 9.7 | 0.00 | 0.03 | 0.03 | 49 | 1012.7 |
| 20260503020611 | 23 | 23 | 3.2 | 6.4 | 0.00 | 0.03 | 0.03 | 50 | 1012.9 |
| 20260503020109 | 22 | 94 | 8.0 | 17.7 | 0.00 | 0.03 | 0.03 | 49 | 1013.1 |
| 20260503015605 | 23 | 32 | 8.0 | 8.0 | 0.00 | 0.03 | 0.03 | 49 | 1013.0 |
| 20260503015102 | 23 | 14 | 9.7 | 9.7 | 0.00 | 0.03 | 0.03 | 48 | 1012.7 |
| 20260503014558 | 22 | 356 | 9.7 | 24.1 | 0.00 | 0.03 | 0.03 | 48 | 1012.9 |
| 20260503014056 | 23 | 10 | 4.8 | 17.7 | 0.00 | 0.03 | 0.03 | 48 | 1013.0 |
| 20260503013553 | 23 | 52 | 6.4 | 11.3 | 0.00 | 0.03 | 0.03 | 47 | 1012.9 |
| 20260503013050 | 23 | 12 | 3.2 | 11.3 | 0.00 | 0.03 | 0.03 | 48 | 1012.9 |
| 20260503012548 | 23 | 33 | 8.0 | 8.0 | 0.00 | 0.03 | 0.03 | 47 | 1013.0 |
| 20260503012044 | 23 | 270 | 0.0 | 14.5 | 0.00 | 0.03 | 0.03 | 48 | 1013.2 |
| 20260503011541 | 23 | 28 | 6.4 | 19.3 | 0.00 | 0.03 | 0.03 | 47 | 1012.7 |
| 20260503011038 | 23 | 20 | 4.8 | 12.9 | 0.00 | 0.03 | 0.03 | 47 | 1012.8 |
| 20260503010534 | 23 | 2 | 6.4 | 6.4 | 0.00 | 0.03 | 0.03 | 48 | 1012.9 |
| 20260503010032 | 23 | 97 | 4.8 | 11.3 | 0.00 | 0.03 | 0.03 | 48 | 1013.0 |
| 20260503005529 | 23 | 30 | 11.3 | 19.3 | 0.00 | 0.03 | 0.03 | 48 | 1012.8 |
| 20260503005026 | 23 | 23 | 3.2 | 12.9 | 0.00 | 0.03 | 0.03 | 49 | 1013.0 |
| 20260503004522 | 23 | 34 | 0.0 | 20.9 | 0.00 | 0.03 | 0.03 | 50 | 1012.9 |
| 20260503004021 | 23 | 6 | 6.4 | 22.5 | 0.00 | 0.03 | 0.03 | 50 | 1013.0 |
| 20260503003517 | 23 | 16 | 8.0 | 11.3 | 0.00 | 0.03 | 0.03 | 50 | 1013.0 |
| 20260503003014 | 22 | 18 | 14.5 | 20.9 | 0.00 | 0.03 | 0.03 | 50 | 1013.0 |
| 20260503002511 | 23 | 90 | 1.6 | 14.5 | 0.00 | 0.03 | 0.03 | 50 | 1013.2 |
| 20260503002008 | 23 | 46 | 6.4 | 8.0 | 0.00 | 0.03 | 0.03 | 50 | 1013.2 |